Torna al catalogo

KUIPER-00241

AttivoComunicazioniLEO
NORAD 67149·PAYLOAD·🇺🇸 United States

Lanciato Dec 15, 2025 da Cape Canaveral Space Force Station

Loading…

Prossimi Passaggi (prossime 24 ore)

TLE

AggiornatoSource: CelesTrak SupGP

Epoca: Sep 14, 2026, 14:06 UTC

1 67149C 25301S   26257.58796296  .00007068  00000+0  92521-3 0  2571
2 67149  51.9031 320.3605 0000447  83.0572  50.4184 14.79923018    14

Traccia KUIPER-00241 in tempo reale con AllMySat

Download on the App Store